Falfurrias, TX

10:11 PM CDT on September 19, 2019 (GMT -0500)
Falfurrias

Weather History for KBKS - May, 2019

Change the Weather History Date:

Sunday, May 19, 2019

  Actual Average (KNQI) Record (KNQI)
Temperature  
Mean Temperature 86 °F -  
Max Temperature 93 °F 86 °F 97 °F (2008)
Min Temperature 78 °F 69 °F 59 °F (2002)
Cooling Degree Days 20    
Growing Degree Days 36 (Base 50)    
Moisture  
Dew Point 75 °F    
Average Humidity 75    
Maximum Humidity 89    
Minimum Humidity 52    
Precipitation  
Precipitation 0.00 in - - ()
Sea Level Pressure  
Sea Level Pressure 29.77 in    
Wind  
Wind Speed 6 mph (ESE)    
Max Wind Speed 14 mph    
Max Gust Speed 22 mph    
Visibility 7 miles    
Events      
Averages and records for this station are not official NWS values.
T = Trace of Precipitation, MM = Missing Value Source: NWS Daily Summary

Daily Weather History Graph

Daily Weather History Graph

Search for Another Location

Airport or City:

Astronomy

May. 19, 2019 Rise Set
Actual Time 6:42 AM CDT 8:15 PM CDT
Civil Twilight 6:16 AM CDT 8:41 PM CDT
Nautical Twilight 5:46 AM CDT 9:12 PM CDT
Astronomical Twilight 5:14 AM CDT 9:43 PM CDT
Moon 9:17 PM CDT (5/19) 7:25 AM CDT (5/19)
Length of Visible Light 14h 24m
Length of Day
13h 33m
Full, 99% of the Moon is Illuminated
May 19
Full
May 26
Last Quarter
Jun 3
New
Jun 10
First Quarter
Jun 17
Full

Hourly Weather History & Observations

Time (CDT) Temp. Heat Index Dew Point Humidity Pressure Visibility Wind Dir Wind Speed Gust Speed Precip Events Conditions
12:15 AM 80.6 °F 86.2 °F 75.2 °F 84% 29.72 in 7.0 mi SE 5.8 mph - N/A   Overcast
12:35 AM 80.6 °F 86.2 °F 75.2 °F 84% 29.72 in 7.0 mi SE 5.8 mph - N/A   Overcast
12:55 AM 79.9 °F - 75.2 °F 86% 29.72 in 7.0 mi SE 4.6 mph - N/A   Mostly Cloudy
1:15 AM 79.7 °F - 75.2 °F 86% 29.72 in 5.0 mi ESE 4.6 mph - N/A   Mostly Cloudy
1:35 AM 79.7 °F - 75.2 °F 86% 29.72 in 5.0 mi East 3.5 mph - N/A   Overcast
1:55 AM 79.7 °F - 75.2 °F 86% 29.72 in 5.0 mi ESE 3.5 mph - N/A   Overcast
2:15 AM 79.3 °F - 75.2 °F 87% 29.72 in 5.0 mi ESE 4.6 mph - N/A   Mostly Cloudy
2:35 AM 79.2 °F - 75.2 °F 88% 29.71 in 5.0 mi Calm Calm - N/A   Mostly Cloudy
2:55 AM 78.8 °F - 75.0 °F 88% 29.71 in 5.0 mi East 3.5 mph - N/A   Mostly Cloudy
3:15 AM 78.8 °F - 74.8 °F 88% 29.71 in 5.0 mi Calm Calm - N/A   Overcast
3:35 AM 78.8 °F - 75.2 °F 89% 29.72 in 4.0 mi Calm Calm - N/A   Overcast
3:55 AM 78.8 °F - 75.2 °F 89% 29.72 in 4.0 mi East 3.5 mph - N/A   Overcast
4:15 AM 79.2 °F - 75.2 °F 88% 29.72 in 5.0 mi East 3.5 mph - N/A   Overcast
4:35 AM 79.5 °F - 75.2 °F 87% 29.73 in 5.0 mi East 3.5 mph - N/A   Overcast
4:55 AM 79.7 °F - 75.2 °F 86% 29.73 in 5.0 mi East 3.5 mph - N/A   Overcast
5:15 AM 79.7 °F - 75.2 °F 86% 29.74 in 5.0 mi East 3.5 mph - N/A   Overcast
5:35 AM 79.5 °F - 75.2 °F 87% 29.74 in 5.0 mi ESE 4.6 mph - N/A   Overcast
5:55 AM 79.7 °F - 75.2 °F 86% 29.75 in 5.0 mi East 4.6 mph - N/A   Overcast
6:15 AM 79.7 °F - 75.2 °F 86% 29.75 in 5.0 mi East 4.6 mph - N/A   Overcast
6:35 AM 79.7 °F - 75.2 °F 86% 29.75 in 5.0 mi East 5.8 mph - N/A   Overcast
6:55 AM 79.7 °F - 75.2 °F 86% 29.76 in 5.0 mi ESE 5.8 mph - N/A   Overcast
7:15 AM 79.7 °F - 75.4 °F 87% 29.76 in 5.0 mi ESE 6.9 mph - N/A   Overcast
7:35 AM 79.7 °F - 75.4 °F 87% 29.77 in 5.0 mi ESE 6.9 mph - N/A   Mostly Cloudy
7:55 AM 80.2 °F 85.7 °F 75.6 °F 86% 29.78 in 4.0 mi ESE 8.1 mph - N/A   Overcast
8:15 AM 81.1 °F 87.4 °F 75.6 °F 83% 29.78 in 5.0 mi ESE 8.1 mph - N/A   Mostly Cloudy
8:35 AM 82.2 °F 89.6 °F 75.9 °F 81% 29.79 in 5.0 mi ESE 6.9 mph - N/A   Scattered Clouds
8:55 AM 82.4 °F 90.1 °F 75.9 °F 81% 29.80 in 5.0 mi ESE 8.1 mph - N/A   Scattered Clouds
9:15 AM 82.6 °F 89.9 °F 75.6 °F 79% 29.81 in 5.0 mi East 5.8 mph - N/A   Mostly Cloudy
9:35 AM 83.1 °F 90.7 °F 75.4 °F 77% 29.81 in 5.0 mi ESE 8.1 mph - N/A   Mostly Cloudy
9:55 AM 83.7 °F 91.0 °F 74.7 °F 74% 29.82 in 7.0 mi SE 6.9 mph - N/A   Overcast
10:15 AM 84.2 °F 91.9 °F 74.7 °F 73% 29.82 in 7.0 mi ESE 5.8 mph - N/A   Overcast
10:35 AM 85.5 °F 93.4 °F 74.3 °F 69% 29.83 in 7.0 mi ESE 4.6 mph - N/A   Overcast
10:55 AM 84.9 °F 92.1 °F 73.8 °F 69% 29.84 in 7.0 mi SE 6.9 mph - N/A   Overcast
11:15 AM 86.2 °F 94.2 °F 74.1 °F 67% 29.83 in 10.0 mi ESE 5.8 mph - N/A   Overcast
11:35 AM 86.9 °F 94.5 °F 73.6 °F 64% 29.83 in 10.0 mi SSE 9.2 mph - N/A   Overcast
11:55 AM 88.2 °F 96.9 °F 73.9 °F 63% 29.83 in 10.0 mi SE 8.1 mph - N/A   Overcast
12:15 PM 88.0 °F 96.5 °F 73.8 °F 63% 29.82 in 10.0 mi SE 8.1 mph - N/A   Overcast
12:35 PM 89.2 °F 97.4 °F 73.2 °F 59% 29.80 in 10.0 mi SE 6.9 mph - N/A   Mostly Cloudy
12:55 PM 89.6 °F 97.7 °F 72.9 °F 58% 29.80 in 10.0 mi SE 9.2 mph - N/A   Mostly Cloudy
1:15 PM 90.3 °F 98.2 °F 72.5 °F 56% 29.80 in 10.0 mi SSE 8.1 mph - N/A   Mostly Cloudy
1:35 PM 91.4 °F 99.5 °F 72.9 °F 54% 29.78 in 10.0 mi SSE 9.2 mph - N/A   Mostly Cloudy
1:55 PM 91.9 °F 100.1 °F 72.7 °F 53% 29.78 in 10.0 mi SSE 10.4 mph - N/A   Scattered Clouds
2:15 PM 92.7 °F 101.1 °F 72.5 °F 52% 29.78 in 10.0 mi SSE 10.4 mph - N/A   Scattered Clouds
2:35 PM 91.9 °F 100.1 °F 72.7 °F 53% 29.78 in 10.0 mi SSE 3.5 mph - N/A   Scattered Clouds
2:55 PM 93.0 °F 101.9 °F 73.0 °F 52% 29.79 in 10.0 mi East 5.8 mph - N/A   Mostly Cloudy
3:15 PM 92.1 °F 102.4 °F 74.1 °F 56% 29.78 in 10.0 mi SE 8.1 mph - N/A   Mostly Cloudy
3:35 PM 92.5 °F 104.6 °F 75.6 °F 58% 29.77 in 10.0 mi East 10.4 mph - N/A   Mostly Cloudy
3:55 PM 91.9 °F 102.6 °F 74.8 °F 57% 29.75 in 10.0 mi ESE 11.5 mph 16.1 mph N/A   Scattered Clouds
4:15 PM 91.8 °F 104.1 °F 75.9 °F 60% 29.75 in 10.0 mi East 11.5 mph 19.6 mph N/A   Mostly Cloudy
4:35 PM 88.7 °F 99.8 °F 76.1 °F 66% 29.74 in 7.0 mi ENE 11.5 mph 21.9 mph N/A   Overcast
4:55 PM 91.4 °F 103.8 °F 76.3 °F 61% 29.74 in 10.0 mi East 13.8 mph 19.6 mph N/A   Scattered Clouds
5:15 PM 90.9 °F 103.0 °F 76.1 °F 62% 29.73 in 7.0 mi East 12.7 mph 19.6 mph N/A   Clear
5:35 PM 90.1 °F 101.8 °F 76.1 °F 63% 29.73 in 7.0 mi East 10.4 mph - N/A   Scattered Clouds
5:55 PM 89.8 °F 101.5 °F 75.9 °F 64% 29.74 in 7.0 mi East 12.7 mph - N/A   Scattered Clouds
6:15 PM 89.1 °F 100.2 °F 75.9 °F 65% 29.74 in 7.0 mi East 10.4 mph 17.3 mph N/A   Scattered Clouds
6:55 PM 86.0 °F 95.1 °F 75.4 °F 70% 29.74 in 7.0 mi East 13.8 mph 19.6 mph N/A   Mostly Cloudy
7:15 PM 85.5 °F 94.6 °F 75.4 °F 72% 29.75 in 7.0 mi East 9.2 mph 16.1 mph N/A   Scattered Clouds
7:35 PM 85.1 °F 94.1 °F 75.6 °F 73% 29.75 in 7.0 mi East 11.5 mph - N/A   Mostly Cloudy
7:55 PM 84.6 °F 93.9 °F 76.1 °F 76% 29.76 in 7.0 mi ESE 11.5 mph 17.3 mph N/A   Overcast
8:15 PM 83.8 °F 92.5 °F 75.9 °F 77% 29.77 in 7.0 mi East 6.9 mph - N/A   Overcast
8:35 PM 83.3 °F 91.1 °F 75.6 °F 77% 29.78 in 7.0 mi ESE 9.2 mph 17.3 mph N/A   Overcast
8:55 PM 83.3 °F 91.8 °F 76.1 °F 79% 29.78 in 7.0 mi East 9.2 mph - N/A   Overcast
9:15 PM 82.9 °F 91.2 °F 76.1 °F 80% 29.79 in 7.0 mi East 5.8 mph - N/A   Overcast
9:35 PM 82.8 °F 90.7 °F 76.1 °F 80% 29.80 in 7.0 mi ESE 10.4 mph - N/A   Overcast
9:55 PM 82.6 °F 90.5 °F 76.1 °F 81% 29.80 in 7.0 mi ESE 9.2 mph - N/A   Overcast
10:15 PM 82.4 °F 90.1 °F 76.1 °F 81% 29.81 in 7.0 mi ESE 8.1 mph - N/A   Overcast
10:35 PM 82.4 °F 90.1 °F 76.1 °F 81% 29.81 in 7.0 mi ESE 11.5 mph - N/A   Overcast
10:55 PM 82.4 °F 90.3 °F 76.3 °F 82% 29.81 in 7.0 mi ESE 9.2 mph - N/A   Overcast
11:15 PM 82.4 °F 90.3 °F 76.5 °F 82% 29.82 in 7.0 mi ESE 8.1 mph - N/A   Overcast
11:30 PM 81.9 °F 89.5 °F 76.5 °F 84% 29.82 in 7.0 mi ESE 6.9 mph - N/A   Overcast
11:55 PM 81.5 °F 88.7 °F 76.6 °F 85% 29.82 in 7.0 mi SE 6.9 mph - N/A   Overcast